Regional Weather Roundup
Issued by NWS

Home | Current Version | Previous Version | Graphics & Text | Print | Product List | Glossary On
Versions: 1 2 3 4 5 6 7 8 9 10 11 12 13 14 15 16 17 18 19 20 21 22 23 24 25 26 27 28 29 30 31 32 33 34 35 36 37 38 39 40 41 42 43 44 45 46 47 48 49 50
000
ASUS43 KIND 250959
RWRIN

WEATHER ROUNDUP FOR INDIANA
NATIONAL WEATHER SERVICE INDIANAPOLIS IN
600 AM EDT FRI JUL 25 2014

NOTE: "FAIR" INDICATES FEW OR NO CLOUDS BELOW 12,000 FEET WITH NO
SIGNIFICANT WEATHER AND/OR OBSTRUCTIONS TO VISIBILITY.

* - STATION DOES NOT REPORT WEATHER SUCH AS PRECIPITATION OR FOG.

+ - STATION NOT QUALITY CONTROLLED BY THE NATIONAL WEATHER SERVICE.
    USE DATA WITH CAUTION...ESPECIALLY DEWPOINT AND RELATIVE
    HUMIDITY OBSERVATIONS.

INZ001>003-010>013-019-020-251100-
NORTHWEST INDIANA

CITY           SKY/WX    TMP DP  RH WIND       PRES   REMARKS
GARY /AIRPORT/ PTCLDY    55  52  88 SW3       30.09R
VALPARAISO     CLEAR     50  48  93 W5        30.09R

$$

LMZ046-743>745-251100-
SOUTHERN LAKE MICHIGAN

STATION/POSITION TIME  TEMP WIND        PRES
                       AIR  DIR/SP/G
                 (UTC) (F)  (DEG/KT/KT) (MB)
MICHIGAN CITY    0900   57  180/  4/  6   N/A

$$

INZ004-005-014>016-021>024-251100-
NORTH CENTRAL INDIANA

CITY           SKY/WX    TMP DP  RH WIND       PRES   REMARKS
GOSHEN         CLEAR     53  50  89 SE5       30.07F
PERU/GRISSOM   PTCLDY    50  50 100 CALM      30.09S FOG
SOUTH BEND     CLEAR     56  49  77 CALM      30.07F

$$

INZ006>009-017-018-025>027-251100-
NORTHEAST INDIANA

CITY           SKY/WX    TMP DP  RH WIND       PRES   REMARKS
ANGOLA *+      CLOUDY    52  52 100 CALM      30.09S VSB 1/4
FORT WAYNE     PTCLDY    56  51  84 S5        30.10R

$$

INZ028-029-035-036-043>045-051>053-251100-
WEST CENTRAL INDIANA

CITY           SKY/WX    TMP DP  RH WIND       PRES   REMARKS
GREENCASTLE +  CLEAR     50  50 100 CALM      30.10R
LAFAYETTE      CLEAR     52  51  97 CALM      30.10R
TERRE HAUTE    CLEAR     53  51  93 CALM      30.09R

$$

INZ030>032-037>040-046>048-054>057-064-065-251100-
CENTRAL INDIANA

CITY           SKY/WX    TMP DP  RH WIND       PRES   REMARKS
INDIANAPOLIS   CLEAR     58  53  84 CALM      30.09R
-EAGLE CREEK   CLEAR     57  54  89 CALM      30.09R FOG
KOKOMO *+      CLEAR     52  50  93 CALM      30.11R
MT COMFORT *+  CLEAR     50 N/A N/A CALM      30.11R
SHELBYVILLE    CLEAR     54  51  90 CALM      30.09R

$$

INZ033-034-041-042-049-050-058-059-251100-
EAST CENTRAL INDIANA

CITY           SKY/WX    TMP DP  RH WIND       PRES   REMARKS
MUNCIE         CLEAR     52  49  89 CALM      30.10R

$$

INZ060-061-067>069-081>083-085>088-251100-
SOUTHWEST INDIANA

CITY           SKY/WX    TMP DP  RH WIND       PRES   REMARKS
EVANSVILLE     CLEAR     59  55  87 CALM      30.07R
HUNTINGBURG *+ CLEAR     54  52  94 CALM      30.08R

$$

INZ062-063-066-070>080-084-089>092-251100-
SOUTH CENTRAL AND SOUTHEAST INDIANA

CITY           SKY/WX    TMP DP  RH WIND       PRES   REMARKS
BLOOMINGTON    CLEAR     53  51  93 CALM      30.09R

$$




USA.gov is the U.S. government's official web portal to all federal, state and local government web resources and services.